This is the latest recevied weather packets stored in our database for station/object KC5DAQ-27. If no packets are shown the sender has not sent any weather packets the latest 1 day(s).
| Time | Temp. | Humidity | Pressure | Rain* | Wind** | Luminosity | Snow |
|---|---|---|---|---|---|---|---|
| 1778034048 | 25.56° C | 86% | 999.1 hPa | 0 mm | 3.58 m/s, 166° | 0 W/m² | - |
| 1778033986 | 25.56° C | 86% | 999.1 hPa | 0 mm | 3.13 m/s, 158° | 0 W/m² | - |
| 1778033925 | 25.56° C | 86% | 999 hPa | 0 mm | 3.58 m/s, 180° | 0 W/m² | - |
| 1778033867 | 25.56° C | 86% | 999 hPa | 0 mm | 3.58 m/s, 172° | 0 W/m² | - |
| 1778033806 | 26.11° C | 86% | 999 hPa | 0 mm | 3.13 m/s, 186° | 0 W/m² | - |
| 1778033747 | 26.11° C | 86% | 999 hPa | 0 mm | 4.02 m/s, 149° | 0 W/m² | - |
| 1778033687 | 25.56° C | 86% | 999 hPa | 0 mm | 4.47 m/s, 188° | 0 W/m² | - |
| 1778033626 | 25.56° C | 86% | 999 hPa | 0 mm | 4.02 m/s, 166° | 0 W/m² | - |
| 1778033566 | 25.56° C | 86% | 999.1 hPa | 0 mm | 3.58 m/s, 166° | 0 W/m² | - |
| 1778033505 | 25.56° C | 86% | 999 hPa | 0 mm | 4.02 m/s, 152° | 0 W/m² | - |
| 1778033447 | 25.56° C | 86% | 999.1 hPa | 0 mm | 3.58 m/s, 196° | 0 W/m² | - |
| 1778033386 | 25.56° C | 86% | 999.1 hPa | 0 mm | 2.68 m/s, 165° | 0 W/m² | - |
| 1778033326 | 25.56° C | 86% | 999 hPa | 0 mm | 2.68 m/s, 166° | 0 W/m² | - |
| 1778033265 | 26.11° C | 86% | 999 hPa | 0 mm | 3.13 m/s, 171° | 0 W/m² | - |
| 1778033206 | 25.56° C | 86% | 998.9 hPa | 0 mm | 2.68 m/s, 161° | 0 W/m² | - |
| 1778033145 | 25.56° C | 86% | 998.9 hPa | 0 mm | 2.68 m/s, 206° | 0 W/m² | - |
| 1778033086 | 25.56° C | 86% | 998.9 hPa | 0 mm | 3.13 m/s, 193° | 0 W/m² | - |
| 1778033026 | 25.56° C | 86% | 998.9 hPa | 0 mm | 3.58 m/s, 199° | 0 W/m² | - |
| 1778032966 | 25.56° C | 86% | 998.9 hPa | 0 mm | 3.58 m/s, 173° | 0 W/m² | - |
| 1778032906 | 25.56° C | 86% | 998.9 hPa | 0 mm | 4.02 m/s, 183° | 0 W/m² | - |
| 1778032846 | 25.56° C | 86% | 998.8 hPa | 0 mm | 4.92 m/s, 179° | 0 W/m² | - |
| 1778032785 | 25.56° C | 86% | 998.9 hPa | 0 mm | 4.92 m/s, 180° | 0 W/m² | - |
| 1778032726 | 25.56° C | 86% | 998.9 hPa | 0 mm | 4.92 m/s, 189° | 0 W/m² | - |
| 1778032666 | 25.56° C | 86% | 998.8 hPa | 0 mm | 4.47 m/s, 195° | 0 W/m² | - |
| 1778032606 | 25.56° C | 86% | 998.8 hPa | 0 mm | 3.58 m/s, 189° | 0 W/m² | - |
* Rain latest hour (hover to see other rain measurements)
** Current wind speed in m/s (hover to see current wind gust speed)